CW5766 Weather Reports


Display with metric or nautical units.
time (UTC)temp
F
wind
direction
speed
MPH
gust
MPH
rain 1hr
in
rain 24hr
in
rain mn
in
humidity
%
barometer
mb
20260505001853 47 232 2.0 6.0 0.00 0.00 0.02 80 1003.1
20260505001335 47 202 2.0 7.0 0.00 0.00 0.02 80 1003.1
20260505000847 47 227 2.0 7.0 0.00 0.00 0.02 80 1002.8
20260505000322 47 241 3.0 8.0 0.00 0.00 0.02 80 1002.8
20260504235836 47 243 5.0 9.0 0.00 0.00 0.02 80 1002.8
20260504235330 47 260 4.0 9.0 0.00 0.00 0.02 79 1002.6
20260504234846 48 213 3.0 9.0 0.00 0.00 0.02 79 1002.6
20260504234327 48 216 6.0 8.0 0.00 0.00 0.02 78 1002.6
20260504233839 48 224 2.0 9.0 0.00 0.00 0.02 78 1002.6
20260504233334 49 193 3.0 9.0 0.00 0.00 0.02 77 1002.6
20260504232825 49 205 5.0 8.0 0.00 0.00 0.02 76 1002.6
20260504232340 50 200 3.0 10.0 0.00 0.00 0.02 74 1002.5
20260504231855 50 191 4.0 10.0 0.00 0.00 0.02 73 1002.5
20260504231332 51 256 4.0 9.0 0.00 0.00 0.02 72 1002.5
20260504230827 52 216 4.0 9.0 0.00 0.00 0.02 70 1002.1
20260504230341 53 200 1.0 8.0 0.00 0.00 0.02 68 1002.1
20260504225854 54 184 5.0 8.0 0.00 0.00 0.02 64 1002.1
20260504225325 55 232 3.0 9.0 0.00 0.00 0.02 61 1001.8
20260504224839 55 250 5.0 11.0 0.00 0.00 0.02 60 1001.8
20260504224339 55 243 5.0 11.0 0.00 0.00 0.02 61 1001.8
20260504223854 55 248 5.0 9.0 0.00 0.00 0.02 61 1001.8
20260504223328 55 233 4.0 15.0 0.00 0.00 0.02 62 1001.8
20260504222822 55 248 6.0 15.0 0.00 0.00 0.02 63 1001.8
20260504222329 55 282 6.0 15.0 0.00 0.00 0.02 65 1001.9
20260504221846 54 250 5.0 10.0 0.00 0.00 0.02 66 1001.9
20260504221329 54 232 5.0 10.0 0.00 0.00 0.02 68 1001.9
20260504220824 54 260 3.0 10.0 0.00 0.00 0.02 69 1002.0
20260504220338 53 265 4.0 10.0 0.00 0.00 0.02 68 1002.0
20260504215830 53 248 3.0 8.0 0.00 0.00 0.02 68 1002.0
20260504215324 53 217 4.0 8.0 0.00 0.00 0.02 67 1001.6
20260504214838 54 234 4.0 8.0 0.00 0.00 0.02 66 1001.6
20260504214339 54 208 3.0 10.0 0.00 0.00 0.02 66 1001.6
20260504213833 54 251 2.0 10.0 0.00 0.00 0.02 65 1001.5
20260504213345 54 223 3.0 11.0 0.00 0.00 0.02 66 1001.5
20260504212837 53 224 1.0 11.0 0.00 0.00 0.02 64 1001.5
20260504212348 53 208 4.0 9.0 0.00 0.00 0.02 64 1001.4
20260504211844 53 234 4.0 9.0 0.00 0.00 0.02 64 1001.4
20260504211323 53 220 5.0 10.0 0.00 0.00 0.02 63 1001.4
20260504210839 54 247 4.0 10.0 0.00 0.00 0.02 62 1001.2
20260504210330 54 203 5.0 11.0 0.00 0.00 0.02 61 1001.3
20260504205843 54 227 6.0 11.0 0.00 0.00 0.02 59 1001.3
20260504205357 54 212 7.0 13.0 0.00 0.00 0.02 59 1001.0
20260504204851 55 256 6.0 18.0 0.00 0.00 0.02 57 1001.0
20260504204327 56 284 6.0 18.0 0.00 0.00 0.02 56 1001.0
20260504203821 56 260 7.0 15.0 0.00 0.00 0.02 54 1000.6
20260504203334 57 254 8.0 15.0 0.00 0.00 0.02 51 1000.6
20260504202827 59 264 9.0 18.0 0.00 0.00 0.02 47 1000.6
20260504202321 60 217 6.0 18.0 0.00 0.00 0.02 42 1000.3
20260504201836 61 264 6.0 15.0 0.00 0.00 0.02 42 1000.3
20260504201335 61 215 5.0 14.0 0.00 0.00 0.02 39 1000.3
20260504200828 61 281 8.0 11.0 0.00 0.00 0.02 37 1000.2
20260504200343 61 212 6.0 11.0 0.00 0.00 0.02 37 1000.2
20260504195842 61 253 5.0 11.0 0.00 0.00 0.02 39 1000.2
20260504195359 62 260 4.0 9.0 0.00 0.00 0.02 40 1000.2
20260504160348 56 178 7.0 15.0 0.00 0.00 0.02 40 1000.1
20260504150829 53 256 7.0 16.0 0.00 0.00 0.02 58 1000.0
20260504150324 53 248 7.0 15.0 0.00 0.00 0.02 58 1000.0
20260504141333 50 243 7.0 22.0 0.00 0.00 0.02 67 999.4
20260504140826 50 243 8.0 14.0 0.00 0.00 0.02 69 999.3
20260504140406 50 233 4.0 14.0 0.00 0.00 0.02 69 999.3
20260504130328 45 256 6.0 11.0 0.00 0.00 0.02 84 998.5
20260504022834 37 299 2.0 14.0 0.01 0.00 1.02 100 982.9
20260504022329 37 301 5.0 14.0 0.01 0.00 1.02 100 982.2
20260504021845 37 210 4.0 8.0 0.01 0.00 1.02 100 982.2
20260504021323 37 323 2.0 9.0 0.01 0.00 1.02 100 982.2
20260504020837 37 212 3.0 11.0 0.02 0.00 1.02 100 981.6
20260504020332 37 295 1.0 10.0 0.02 0.00 1.02 100 981.6
20260504015827 37 23 2.0 15.0 0.22 0.00 1.02 100 981.6
20260504015320 37 301 3.0 15.0 0.22 0.00 1.02 100 980.9
20260504014836 37 6 3.0 13.0 0.22 0.00 1.02 100 980.9
20260504014338 37 352 5.0 13.0 0.22 0.00 1.02 100 980.9
20260504013833 37 360 3.0 10.0 0.21 0.00 1.01 100 980.2
20260504013348 37 323 5.0 13.0 0.21 0.00 1.01 100 980.2
20260504012837 37 319 3.0 16.0 0.21 0.00 1.01 100 980.2
20260504012329 37 349 6.0 16.0 0.21 0.00 1.01 100 980.2
20260504011844 37 322 8.0 20.0 0.21 0.00 1.01 100 980.2
20260504011324 37 298 7.0 20.0 0.21 0.00 1.01 100 980.2
20260504010838 37 325 4.0 17.0 0.20 0.00 1.00 100 980.1
20260504010332 37 340 6.0 13.0 0.20 0.00 1.00 100 980.1
20260504005955 37 299 9.0 13.0 0.20 0.00 1.00 100 980.1